Weather History for Hutchinson, MN

Change the Weather History Date:

Saturday, November 3, 2012

  Actual Average Record
Temperature  
Mean Temperature 38 °F -  
Max Temperature 41 °F 47 °F 75 °F (1978)
Min Temperature 35 °F 30 °F 7 °F (1991)
Degree Days  
Heating Degree Days 27    
Moisture  
Dew Point 32 °F    
Average Humidity 79    
Maximum Humidity 95    
Minimum Humidity 66    
Precipitation  
Precipitation 0.01 in - - ()
Sea Level Pressure  
Sea Level Pressure 30.18 in    
Wind  
Wind Speed 1 mph (ENE)    
Max Wind Speed 6 mph    
Max Gust Speed -    
Visibility 10 miles    
Events Rain    
Averages and records for this station are not official NWS values.
T = Trace of Precipitation, MM = Missing Value Source: NWS Daily Summary

Daily Weather History Graph

Daily Weather History Graph

Search for Another Location

Airport:

Trip Planner

Search our weather history database for the weather conditions in past years. The results will help you decide how hot, cold, wet, or windy it might be!

Date:

Astronomy

Nov. 03, 2012 Rise Set
Actual Time 7:59 AM CDT 6:02 PM CDT
Civil Twilight 7:28 AM CDT 6:33 PM CDT
Nautical Twilight 6:53 AM CDT 7:07 PM CDT
Astronomical Twilight 6:19 AM CDT 7:41 PM CDT
Moon 9:40 PM CDT (11/3) 12:08 PM CDT (11/3)
Length of Visible Light 11h 04m
Length of Day
10h 03m
Waning Gibbous, 80% of the Moon is Illuminated
Nov 3
Waning Gibbous
Nov 6
Last Quarter
Nov 13
New
Nov 20
First Quarter
Nov 28
Full

Hourly Weather History & Observations

Time (CDT) Temp. Windchill Dew Point Humidity Pressure Visibility Wind Dir Wind Speed Gust Speed Precip Events Conditions
12:09 AM 36.5 °F 33.9 °F 29.3 °F 75% 30.15 in 10.0 mi NE 3.5 mph - N/A   Overcast
12:28 AM 36.5 °F - 29.3 °F 75% 30.16 in 10.0 mi Calm Calm - N/A   Overcast
12:49 AM 36.5 °F 32.7 °F 28.9 °F 74% 30.16 in 10.0 mi NE 4.6 mph - N/A   Overcast
1:09 AM 36.5 °F - 29.3 °F 75% 30.16 in 10.0 mi Calm Calm - N/A   Overcast
1:28 AM 36.5 °F - 29.3 °F 75% 30.16 in 10.0 mi Calm Calm - N/A   Overcast
1:49 AM 36.5 °F - 30.0 °F 77% 30.15 in 10.0 mi Calm Calm - N/A   Overcast
2:08 AM 36.5 °F - 30.6 °F 79% 30.15 in 10.0 mi Calm Calm - N/A   Overcast
2:28 AM 36.5 °F - 30.9 °F 80% 30.15 in 10.0 mi Calm Calm - N/A   Overcast
2:49 AM 36.5 °F - 29.3 °F 75% 30.15 in 10.0 mi Calm Calm - N/A   Overcast
3:08 AM 36.5 °F - 30.0 °F 77% 30.14 in 10.0 mi Calm Calm - N/A   Overcast
3:09 AM 36.5 °F - 30.2 °F 78% 30.14 in 10.0 mi Calm Calm - N/A   Overcast
3:50 AM 35.6 °F - 32.0 °F 87% 30.15 in 10.0 mi Calm Calm - N/A   Overcast
4:10 AM 35.6 °F - 30.2 °F 81% 30.15 in 10.0 mi Calm Calm - N/A   Overcast
4:30 AM 35.6 °F - 30.2 °F 81% 30.15 in 10.0 mi Calm Calm - N/A   Overcast
4:50 AM 35.6 °F - 30.2 °F 81% 30.15 in 10.0 mi Calm Calm - N/A   Overcast
5:10 AM 35.6 °F 32.8 °F 32.0 °F 87% 30.16 in 10.0 mi NNW 3.5 mph - N/A   Overcast
5:30 AM 35.6 °F - 32.0 °F 87% 30.17 in 10.0 mi Calm Calm - N/A   Overcast
5:50 AM 35.6 °F 32.8 °F 32.0 °F 87% 30.17 in 10.0 mi North 3.5 mph - N/A   Overcast
6:10 AM 35.6 °F - 32.0 °F 87% 30.18 in 10.0 mi Calm Calm - N/A   Mostly Cloudy
6:30 AM 35.6 °F 32.8 °F 32.0 °F 87% 30.18 in 7.0 mi WNW 3.5 mph - N/A   Overcast
6:50 AM 35.6 °F - 32.0 °F 87% 30.18 in 10.0 mi Calm Calm - N/A   Overcast
7:10 AM 35.6 °F 32.8 °F 32.0 °F 87% 30.17 in 10.0 mi NNE 3.5 mph - N/A   Overcast
7:30 AM 35.6 °F - 32.0 °F 87% 30.18 in 10.0 mi Calm Calm - N/A   Overcast
7:50 AM 35.6 °F - 32.0 °F 87% 30.17 in 10.0 mi Calm Calm - N/A   Mostly Cloudy
8:10 AM 35.6 °F - 32.0 °F 87% 30.18 in 10.0 mi Calm Calm - N/A   Overcast
8:30 AM 35.6 °F - 32.0 °F 87% 30.19 in 10.0 mi Calm Calm - N/A   Overcast
8:31 AM 36.5 °F - 32.0 °F 84% 30.19 in 10.0 mi Calm Calm - N/A   Overcast
8:49 AM 36.5 °F 33.9 °F 32.0 °F 84% 30.19 in 10.0 mi ENE 3.5 mph - N/A   Overcast
9:05 AM 36.5 °F - 31.3 °F 81% 30.20 in 10.0 mi Calm Calm - N/A   Overcast
9:30 AM 35.6 °F 32.8 °F 30.2 °F 81% 30.20 in 10.0 mi NE 3.5 mph - N/A   Overcast
9:41 AM - - - N/A% 30.20 in 10.0 mi NE 4.6 mph - N/A   Overcast
9:49 AM 36.5 °F 31.8 °F 30.9 °F 80% 30.20 in 10.0 mi NE 5.8 mph - N/A   Overcast
10:09 AM 36.5 °F 32.7 °F 30.9 °F 80% 30.20 in 10.0 mi ENE 4.6 mph - N/A   Overcast
10:29 AM 36.5 °F - 30.9 °F 80% 30.20 in 10.0 mi Calm Calm - N/A   Overcast
10:47 AM 36.7 °F 34.1 °F 30.9 °F 80% 30.20 in 10.0 mi East 3.5 mph - N/A   Overcast
11:08 AM 36.9 °F - 31.3 °F 80% 30.21 in 10.0 mi Calm Calm - N/A   Overcast
11:29 AM 38.7 °F - 32.4 °F 78% 30.21 in 10.0 mi Calm Calm - N/A   Overcast
11:49 AM 39.2 °F - 32.2 °F 76% 30.21 in 10.0 mi Calm Calm - N/A   Overcast
12:09 PM 39.2 °F - 31.8 °F 75% 30.21 in 10.0 mi Calm Calm - N/A   Overcast
12:28 PM 39.2 °F - 31.6 °F 74% 30.20 in 10.0 mi Calm Calm - N/A   Overcast
12:49 PM 39.2 °F - 31.3 °F 73% 30.20 in 10.0 mi Calm Calm - N/A   Overcast
1:09 PM 39.2 °F 37.0 °F 31.3 °F 73% 30.20 in 10.0 mi South 3.5 mph - N/A   Overcast
1:28 PM 39.7 °F - 31.3 °F 72% 30.20 in 10.0 mi Calm Calm - N/A   Overcast
1:49 PM 40.3 °F - 30.9 °F 69% 30.19 in 10.0 mi Calm Calm - N/A   Overcast
2:09 PM 40.5 °F - 31.1 °F 69% 30.20 in 10.0 mi Calm Calm - N/A   Overcast
2:28 PM 40.6 °F - 31.3 °F 69% 30.20 in 10.0 mi Calm Calm - N/A   Overcast
2:49 PM 41.5 °F - 31.8 °F 68% 30.19 in 10.0 mi Calm Calm - N/A   Overcast
3:08 PM 41.4 °F - 31.6 °F 68% 30.19 in 10.0 mi Calm Calm - N/A   Overcast
3:29 PM 41.5 °F - 31.6 °F 68% 30.19 in 10.0 mi Calm Calm - N/A   Overcast
3:49 PM 41.5 °F - 31.1 °F 66% 30.18 in 10.0 mi Calm Calm - N/A   Mostly Cloudy
4:08 PM 41.5 °F - 31.1 °F 66% 30.18 in 10.0 mi Calm Calm - N/A   Overcast
4:29 PM 41.5 °F - 31.1 °F 66% 30.18 in 10.0 mi Calm Calm - N/A   Overcast
4:49 PM 41.5 °F - 31.1 °F 66% 30.18 in 10.0 mi Calm Calm - N/A   Overcast
5:09 PM 41.5 °F - 31.1 °F 66% 30.18 in 10.0 mi Calm Calm - N/A   Overcast
5:29 PM 41.5 °F - 31.1 °F 66% 30.18 in 10.0 mi Calm Calm - N/A   Overcast
5:48 PM 40.6 °F - 30.7 °F 68% 30.18 in 10.0 mi Calm Calm - N/A   Overcast
6:09 PM 40.3 °F 38.2 °F 31.5 °F 71% 30.18 in 10.0 mi ESE 3.5 mph - N/A   Overcast
6:28 PM 39.2 °F - 31.1 °F 73% 30.18 in 10.0 mi Calm Calm - N/A   Overcast
6:48 PM 39.2 °F - 31.1 °F 73% 30.19 in 10.0 mi Calm Calm - N/A   Scattered Clouds
7:09 PM 39.2 °F 37.0 °F 31.8 °F 75% 30.19 in 10.0 mi East 3.5 mph - N/A   Scattered Clouds
7:29 PM 39.2 °F - 32.0 °F 75% 30.19 in 10.0 mi Calm Calm - N/A   Mostly Cloudy
7:49 PM 39.2 °F - 32.5 °F 77% 30.20 in 10.0 mi Calm Calm - N/A   Overcast
8:09 PM 39.2 °F - 33.3 °F 79% 30.19 in 10.0 mi Calm Calm - N/A   Light Drizzle
8:29 PM 39.2 °F 37.0 °F 32.9 °F 78% 30.19 in 10.0 mi ENE 3.5 mph - N/A   Scattered Clouds
8:49 PM 39.2 °F 37.0 °F 33.1 °F 79% 30.19 in 10.0 mi ENE 3.5 mph - N/A Rain Rain
9:09 PM 39.2 °F 37.0 °F 33.1 °F 79% 30.20 in 10.0 mi NE 3.5 mph - N/A   Light Drizzle
9:28 PM 39.2 °F 37.0 °F 34.2 °F 82% 30.20 in 10.0 mi ENE 3.5 mph - N/A Rain Light Rain
9:49 PM 39.2 °F 37.0 °F 35.2 °F 86% 30.21 in 10.0 mi ENE 3.5 mph - N/A Rain Rain
10:08 PM 38.8 °F 36.5 °F 35.6 °F 88% 30.21 in 10.0 mi ENE 3.5 mph - N/A Rain Light Rain
10:28 PM 37.8 °F - 35.2 °F 91% 30.21 in 10.0 mi Calm Calm - N/A Rain Rain
10:49 PM 36.9 °F 33.1 °F 34.9 °F 93% 30.21 in 10.0 mi ENE 4.6 mph - N/A   Drizzle
11:08 PM 36.5 °F 32.7 °F 34.7 °F 93% 30.21 in 10.0 mi ENE 4.6 mph - 0.01 in   Drizzle
11:29 PM 36.5 °F 32.7 °F 34.9 °F 94% 30.21 in 10.0 mi East 4.6 mph - 0.01 in   Light Drizzle
11:48 PM 36.5 °F 33.9 °F 35.2 °F 95% 30.21 in 10.0 mi East 3.5 mph - 0.01 in   Drizzle